Location: *
(37.9500°N, 27.3666°E)
Time: 13:51:13
(UTC+00:00)

Cosmos 839 Rocket - Pass Details

Date: 24 October 2021
Orbit: 964 x 2088 km, 65.9° (Epoch: 03 December)

Event Time Altitude Azimuth Distance (km) Brightness Sun altitude
Rises 17:00:23 0° 330° (NNW) 4,255 7.8 -20.2°
Reaches altitude 10° 17:03:23 10° 330° (NNW) 3,139 7.0 -20.8°
Maximum altitude 17:10:36 87° 243° (WSW) 1,048 4.1 -22.3°
Enters shadow 17:15:14 19° 154° (SSE) 2,135 5.5 -23.2°
